KA2FNK Weather Reports


Display with metric or nautical units.
time (UTC)temp
F
wind
direction
speed
MPH
gust
MPH
rain 1hr
in
rain 24hr
in
rain mn
in
humidity
%
barometer
mb
20230201125205 15 206 2.0 6.0 0.00 0.00 0.00 76 1028.9
20230201125038 15 206 2.0 6.0 0.00 0.00 0.00 76 1028.9
20230201124434 16 185 3.0 6.0 0.00 0.00 0.00 76 1029.0
20230201123933 16 210 1.0 5.0 0.00 0.00 0.00 75 1028.9
20230201123703 16 189 2.0 5.0 0.00 0.00 0.00 75 1028.9
20230201123537 16 189 2.0 5.0 0.00 0.00 0.00 75 1028.9
20230201122932 16 215 2.0 5.0 0.00 0.00 0.00 75 1028.8
20230201122432 16 219 2.0 5.0 0.00 0.00 0.00 75 1028.8
20230201121930 16 225 3.0 6.0 0.00 0.00 0.00 75 1028.7
20230201121429 16 209 3.0 6.0 0.00 0.00 0.00 75 1028.9
20230201120929 16 208 2.0 6.0 0.00 0.00 0.00 74 1028.8
20230201120428 16 205 2.0 4.0 0.00 0.00 0.00 74 1028.8
20230201115927 16 212 3.0 4.0 0.00 0.00 0.00 74 1028.9
20230201115426 16 168 2.0 5.0 0.00 0.00 0.00 74 1028.9
20230201115155 16 237 2.0 6.0 0.00 0.00 0.00 74 1028.9
20230201115028 16 237 2.0 6.0 0.00 0.00 0.00 74 1028.9
20230201114423 17 208 2.0 6.0 0.00 0.00 0.00 74 1029.1
20230201114153 17 198 3.0 6.0 0.00 0.00 0.00 74 1029.1
20230201114026 17 198 3.0 6.0 0.00 0.00 0.00 74 1029.1
20230201113429 17 209 4.0 7.0 0.00 0.00 0.00 73 1029.4
20230201113421 17 194 3.0 7.0 0.00 0.00 0.00 74 1029.2
20230201113025 17 209 4.0 7.0 0.00 0.00 0.00 73 1029.4
20230201112651 17 188 3.0 7.0 0.00 0.00 0.00 73 1029.3
20230201112525 17 188 3.0 7.0 0.00 0.00 0.00 73 1029.3
20230201111920 17 212 3.0 6.0 0.00 0.00 0.00 73 1029.2
20230201111419 17 220 4.0 6.0 0.00 0.00 0.00 73 1029.1
20230201110918 17 191 2.0 6.0 0.00 0.00 0.00 73 1028.9
20230201110647 17 209 2.0 6.0 0.00 0.00 0.00 73 1028.9
20230201110521 17 209 2.0 6.0 0.00 0.00 0.00 73 1028.9
20230201105916 17 223 3.0 6.0 0.00 0.00 0.00 73 1029.0
20230201105413 17 233 2.0 6.0 0.00 0.00 0.00 73 1028.8
20230201105143 17 203 4.0 6.0 0.00 0.00 0.00 74 1028.8
20230201105021 17 216 4.0 6.0 0.00 0.00 0.00 74 1028.9
20230201105017 17 203 4.0 6.0 0.00 0.00 0.00 74 1028.8
20230201104516 17 216 4.0 6.0 0.00 0.00 0.00 74 1028.9
20230201103910 17 232 3.0 6.0 0.00 0.00 0.00 74 1028.9
20230201103410 17 203 4.0 5.0 0.00 0.00 0.00 74 1029.0
20230201102910 17 233 4.0 6.0 0.00 0.00 0.00 74 1029.0
20230201102409 17 196 2.0 7.0 0.00 0.00 0.00 74 1029.0
20230201101916 17 206 4.0 8.0 0.00 0.00 0.00 75 1029.0
20230201101908 17 199 3.0 7.0 0.00 0.00 0.00 74 1028.9
20230201101511 17 206 4.0 8.0 0.00 0.00 0.00 75 1029.0
20230201100906 17 215 4.0 8.0 0.00 0.00 0.00 75 1029.0
20230201100405 16 203 4.0 8.0 0.00 0.00 0.00 76 1029.0
20230201095905 16 181 4.0 5.0 0.00 0.00 0.00 76 1029.0
20230201095404 16 208 3.0 6.0 0.00 0.00 0.00 76 1029.1
20230201095135 16 187 3.0 6.0 0.00 0.00 0.00 76 1029.0
20230201095007 16 187 3.0 6.0 0.00 0.00 0.00 76 1029.0
20230201094402 16 191 4.0 6.0 0.00 0.00 0.00 77 1028.8
20230201093902 16 219 2.0 6.0 0.00 0.00 0.00 77 1029.0
20230201093359 16 167 2.0 4.0 0.00 0.00 0.00 77 1029.1
20230201092858 16 198 2.0 5.0 0.00 0.00 0.00 77 1029.0
20230201092355 16 223 2.0 5.0 0.00 0.00 0.00 77 1029.0
20230201091854 16 209 3.0 5.0 0.00 0.00 0.00 77 1028.9
20230201091354 15 205 2.0 4.0 0.00 0.00 0.00 77 1028.9
20230201090853 15 257 1.0 5.0 0.00 0.00 0.00 77 1028.9
20230201090624 15 170 2.0 5.0 0.00 0.00 0.00 77 1029.1
20230201090456 15 170 2.0 5.0 0.00 0.00 0.00 77 1029.1
20230201085852 15 216 1.0 4.0 0.00 0.00 0.00 77 1028.9
20230201085351 15 180 2.0 4.0 0.00 0.00 0.00 77 1028.9
20230201084850 15 209 2.0 4.0 0.00 0.00 0.00 77 1028.8
20230201084621 15 208 2.0 4.0 0.00 0.00 0.00 77 1028.9
20230201084454 15 208 2.0 4.0 0.00 0.00 0.00 77 1028.9
20230201083849 15 208 2.0 4.0 0.00 0.00 0.00 77 1028.8
20230201083348 15 203 3.0 4.0 0.00 0.00 0.00 77 1028.7
20230201082848 15 198 2.0 3.0 0.00 0.00 0.00 76 1028.8
20230201082347 15 213 2.0 2.0 0.00 0.00 0.00 76 1028.8
20230201081846 16 187 1.0 2.0 0.00 0.00 0.00 76 1028.8
20230201081345 16 198 0.0 2.0 0.00 0.00 0.00 76 1028.8
20230201080835 16 196 1.0 2.0 0.00 0.00 0.00 76 1029.1
20230201080332 16 154 1.0 3.0 0.00 0.00 0.00 76 1029.0
20230201075831 16 172 0.0 3.0 0.00 0.00 0.00 76 1029.2
20230201075330 16 172 0.0 4.0 0.00 0.00 0.00 75 1029.4
20230201074825 16 222 1.0 4.0 0.00 0.00 0.00 75 1029.3
20230201074325 16 220 2.0 4.0 0.00 0.00 0.00 75 1029.5
20230201073824 16 215 2.0 3.0 0.00 0.00 0.00 75 1029.6
20230201073324 16 209 1.0 3.0 0.00 0.00 0.00 75 1029.3
20230201073053 16 167 1.0 3.0 0.00 0.00 0.00 75 1029.3
20230201072927 16 167 1.0 3.0 0.00 0.00 0.00 75 1029.3
20230201072322 16 215 1.0 4.0 0.00 0.00 0.00 75 1029.4
20230201071821 16 220 1.0 4.0 0.00 0.00 0.00 75 1029.5
20230201071320 16 222 2.0 4.0 0.00 0.00 0.00 76 1029.3
20230201070819 16 196 0.0 0.0 0.00 0.00 0.00 76 1029.3
20230201070306 16 196 0.0 0.0 0.00 0.00 0.00 76 1029.5
20230201065801 16 196 0.0 0.0 0.00 0.00 0.00 75 1029.4
20230201065301 16 196 0.0 0.0 0.00 0.00 0.00 75 1029.7
20230201064752 16 196 0.0 1.0 0.00 0.00 0.00 75 1029.5
20230201064251 16 196 0.0 2.0 0.00 0.00 0.00 75 1029.5
20230201063744 16 196 0.0 2.0 0.00 0.00 0.00 76 1029.5
20230201063239 16 223 1.0 2.0 0.00 0.00 0.00 75 1029.6
20230201062740 16 164 0.0 2.0 0.00 0.00 0.00 75 1029.6
20230201062239 16 196 0.0 0.0 0.00 0.00 0.00 74 1029.6
20230201061732 16 196 0.0 1.0 0.00 0.00 0.00 74 1029.7
20230201061229 16 196 0.0 2.0 0.00 0.00 0.00 74 1029.7
20230201060728 16 196 1.0 2.0 0.00 0.00 0.00 74 1029.6
20230201060215 16 241 0.0 0.0 0.00 0.00 0.00 74 1029.6
20230201055704 16 241 0.0 0.0 0.00 0.00 0.00 74 1029.5
20230201055157 16 241 0.0 1.0 0.00 0.00 0.00 74 1029.6
20230201054630 16 241 0.0 3.0 0.00 0.00 0.00 74 1029.6
20230201054119 16 241 0.0 3.0 0.00 0.00 0.00 74 1029.6
20230201054113 16 194 1.0 3.0 0.00 0.00 0.00 74 1029.6
20230201053715 16 194 1.0 3.0 0.00 0.00 0.00 74 1029.6
20230201053110 16 178 0.0 0.0 0.00 0.00 0.00 73 1029.6
20230201053104 17 178 0.0 0.0 0.00 0.00 0.00 73 1029.7
20230201052706 17 178 0.0 0.0 0.00 0.00 0.00 73 1029.7
20230201052051 17 178 0.0 0.0 0.00 0.00 0.00 73 1029.6
20230201051539 17 178 0.0 0.0 0.00 0.00 0.00 73 1029.6
20230201051033 17 178 0.0 0.0 0.00 0.00 0.00 72 1029.5
20230201050802 17 178 0.0 0.0 0.00 0.00 0.00 72 1029.4
20230201050636 17 178 0.0 0.0 0.00 0.00 0.00 72 1029.4
20230201050019 17 178 0.0 0.0 0.00 0.00 0.00 72 1029.5
20230201045749 17 178 0.0 0.0 0.00 0.00 0.00 72 1029.5
20230201045623 17 178 0.0 0.0 0.00 0.00 0.00 72 1029.5
20230201045018 17 178 0.0 0.0 0.00 0.00 0.00 71 1029.6
20230201044517 17 178 0.0 0.0 0.00 0.00 0.00 71 1029.4
20230201044014 17 178 0.0 0.0 0.00 0.00 0.00 71 1029.3
20230201043455 17 178 0.0 0.0 0.00 0.00 0.00 71 1029.4
20230201043213 17 178 0.0 0.0 0.00 0.00 0.00 71 1029.6
20230201043046 17 178 0.0 0.0 0.00 0.00 0.00 71 1029.6
20230201042431 17 178 0.0 0.0 0.00 0.00 0.00 71 1029.6
20230201041918 17 178 0.0 0.0 0.00 0.00 0.00 70 1029.7
20230201041405 17 178 0.0 0.0 0.00 0.00 0.00 70 1029.6
20230201040852 17 178 0.0 0.0 0.00 0.00 0.00 70 1029.5
20230201040347 17 178 0.0 0.0 0.00 0.00 0.00 70 1029.4
20230201035832 17 178 0.0 0.0 0.00 0.00 0.00 70 1029.4
20230201035330 17 178 0.0 0.0 0.00 0.00 0.00 70 1029.3
20230201034818 17 178 0.0 0.0 0.00 0.00 0.00 69 1029.3
20230201034250 17 178 0.0 0.0 0.00 0.00 0.00 69 1029.2
20230201033731 18 178 0.0 0.0 0.00 0.00 0.00 69 1029.2
20230201033455 18 178 0.0 0.0 0.00 0.00 0.00 68 1029.2
20230201033329 18 178 0.0 0.0 0.00 0.00 0.00 68 1029.2
20230201032724 18 178 0.0 0.0 0.00 0.00 0.00 67 1029.3
20230201032219 18 178 0.0 1.0 0.00 0.00 0.00 68 1029.2
20230201031658 18 178 0.0 1.0 0.00 0.00 0.00 68 1029.3
20230201031149 18 157 0.0 0.0 0.00 0.00 0.00 67 1029.2
20230201030648 18 157 0.0 0.0 0.00 0.00 0.00 67 1029.2
20230201030141 18 157 0.0 0.0 0.00 0.00 0.00 67 1029.4
20230201025641 18 157 0.0 1.0 0.00 0.00 0.00 67 1029.3
20230201025132 19 157 0.0 1.0 0.00 0.00 0.00 67 1029.5
20230201024631 19 174 0.0 1.0 0.00 0.00 0.00 66 1029.5
20230201024126 19 234 0.0 0.0 0.00 0.00 0.00 66 1029.5
20230201023617 19 234 0.0 0.0 0.00 0.00 0.00 66 1029.4
20230201023110 19 234 0.0 0.0 0.00 0.00 0.00 65 1029.3
20230201022830 19 234 0.0 0.0 0.00 0.00 0.00 65 1029.4
20230201022702 19 234 0.0 0.0 0.00 0.00 0.00 65 1029.4
20230201022055 19 234 0.0 0.0 0.00 0.00 0.00 65 1029.4
20230201021544 19 234 0.0 0.0 0.00 0.00 0.00 64 1029.4
20230201021041 19 234 0.0 0.0 0.00 0.00 0.00 64 1029.5
20230201020537 19 234 0.0 0.0 0.00 0.00 0.00 64 1029.5
20230201020030 19 234 0.0 0.0 0.00 0.00 0.00 64 1029.5
20230201015529 19 234 0.0 0.0 0.00 0.00 0.00 63 1029.4
20230201015018 19 234 0.0 0.0 0.00 0.00 0.00 63 1029.3
20230201014749 19 234 0.0 0.0 0.00 0.00 0.00 62 1029.2
20230201014623 19 234 0.0 0.0 0.00 0.00 0.00 62 1029.2
20230201014016 20 234 0.0 0.0 0.00 0.00 0.00 62 1029.1
20230201013514 20 234 0.0 0.0 0.00 0.00 0.00 61 1029.2
20230201013242 20 234 0.0 0.0 0.00 0.00 0.00 61 1029.1
20230201013115 20 234 0.0 0.0 0.00 0.00 0.00 61 1029.1
20230201012731 20 234 0.0 0.0 0.00 0.00 0.00 62 1029.1
20230201012604 20 234 0.0 0.0 0.00 0.00 0.00 62 1029.1
20230201011943 20 234 0.0 0.0 0.00 0.00 0.00 61 1029.2
20230201011440 20 234 0.0 0.0 0.00 0.00 0.00 60 1029.3
20230201010931 20 234 0.0 0.0 0.00 0.00 0.00 61 1029.3
20230201010531 20 234 0.0 0.0 0.00 0.00 0.00 60 1029.5
20230201010028 20 234 0.0 0.0 0.00 0.00 0.00 60 1029.4
20230201005417 20 234 0.0 0.0 0.00 0.00 0.00 60 1029.2
20230201004904 21 234 0.0 0.0 0.00 0.00 0.00 59 1029.2
20230201004851 21 234 0.0 0.0 0.00 0.00 0.00 58 1029.3
20230201004453 21 234 0.0 0.0 0.00 0.00 0.00 58 1029.3
20230201003840 21 234 0.0 0.0 0.00 0.00 0.00 58 1029.3
20230201003337 22 234 0.0 0.0 0.00 0.00 0.00 57 1029.4
20230201002825 22 234 0.0 0.0 0.00 0.00 0.00 57 1029.4
20230201002318 22 234 0.0 0.0 0.00 0.00 0.00 57 1029.5
20230201001803 22 234 0.0 0.0 0.00 0.00 0.00 56 1029.6
20230201001232 23 234 0.0 0.0 0.00 0.00 0.00 56 1029.6
20230201000731 23 234 0.0 1.0 0.00 0.00 0.00 55 1029.5
20230201000230 23 234 0.0 2.0 0.00 0.00 0.00 55 1029.5
20230131235730 23 213 0.0 3.0 0.00 0.00 0.00 54 1029.6
20230131235223 23 213 1.0 5.0 0.00 0.00 0.00 54 1029.4
20230131234718 23 216 0.0 5.0 0.00 0.00 0.00 54 1029.5
20230131234217 24 217 3.0 5.0 0.00 0.00 0.00 53 1029.5
20230131233948 24 255 0.0 4.0 0.00 0.00 0.00 53 1029.4
20230131233821 24 255 0.0 4.0 0.00 0.00 0.00 53 1029.4
20230131233426 24 203 1.0 4.0 0.00 0.00 0.00 54 1029.4
20230131233300 24 203 1.0 4.0 0.00 0.00 0.00 54 1029.4
20230131232655 24 217 1.0 4.0 0.00 0.00 0.00 53 1029.4
20230131232154 24 248 2.0 4.0 0.00 0.00 0.00 53 1029.4
20230131231922 24 237 2.0 3.0 0.00 0.00 0.00 53 1029.4
20230131231756 24 237 2.0 3.0 0.00 0.00 0.00 53 1029.4
20230131231151 24 215 0.0 3.0 0.00 0.00 0.00 53 1029.4
20230131230627 24 223 0.0 4.0 0.00 0.00 0.00 52 1029.5
20230131230120 24 260 2.0 4.0 0.00 0.00 0.00 52 1029.5
20230131225620 24 226 0.0 3.0 0.00 0.00 0.00 52 1029.4
20230131225117 24 180 1.0 4.0 0.00 0.00 0.00 51 1029.4
20230131224616 24 307 0.0 5.0 0.00 0.00 0.00 50 1029.4
20230131224116 24 201 2.0 8.0 0.00 0.00 0.00 50 1029.5
20230131223615 24 236 4.0 8.0 0.00 0.00 0.00 50 1029.5
20230131223115 25 167 1.0 5.0 0.00 0.00 0.00 51 1029.6
20230131222841 24 170 1.0 6.0 0.00 0.00 0.00 51 1029.4
20230131222714 24 170 1.0 6.0 0.00 0.00 0.00 51 1029.4
20230131222104 24 343 2.0 6.0 0.00 0.00 0.00 51 1029.4
20230131221604 24 220 1.0 4.0 0.00 0.00 0.00 51 1029.5
20230131221104 24 291 1.0 4.0 0.00 0.00 0.00 50 1029.5
20230131220602 25 146 2.0 6.0 0.00 0.00 0.00 50 1029.6
20230131220102 25 241 2.0 9.0 0.00 0.00 0.00 50 1029.6
20230131215601 25 199 2.0 9.0 0.00 0.00 0.00 51 1029.6
20230131215100 24 240 3.0 5.0 0.00 0.00 0.00 50 1029.5
20230131214559 24 265 4.0 5.0 0.00 0.00 0.00 50 1029.5
20230131214059 25 296 1.0 6.0 0.00 0.00 0.00 50 1029.6
20230131213558 24 299 1.0 6.0 0.00 0.00 0.00 50 1029.5
20230131213057 24 229 1.0 7.0 0.00 0.00 0.00 51 1029.7
20230131212557 24 268 3.0 7.0 0.00 0.00 0.00 50 1029.6
20230131212306 24 233 2.0 7.0 0.00 0.00 0.00 50 1029.5
20230131212139 24 233 2.0 7.0 0.00 0.00 0.00 50 1029.5
20230131211535 24 298 3.0 6.0 0.00 0.00 0.00 50 1029.6
20230131211034 24 310 3.0 6.0 0.00 0.00 0.00 50 1029.5
20230131210531 24 226 4.0 10.0 0.00 0.00 0.00 50 1029.4
20230131210301 24 341 3.0 10.0 0.00 0.00 0.00 51 1029.4
20230131210134 24 341 3.0 10.0 0.00 0.00 0.00 51 1029.4
20230131205529 24 282 0.0 7.0 0.00 0.00 0.00 50 1029.6
20230131205022 24 265 0.0 9.0 0.00 0.00 0.00 49 1029.4
20230131204509 25 336 4.0 9.0 0.00 0.00 0.00 49 1029.5
20230131204239 25 291 4.0 8.0 0.00 0.00 0.00 50 1029.4
20230131204113 25 291 4.0 8.0 0.00 0.00 0.00 50 1029.4
20230131203508 25 225 4.0 8.0 0.00 0.00 0.00 49 1029.4
20230131203007 25 178 5.0 8.0 0.00 0.00 0.00 50 1029.4
20230131202506 24 213 5.0 7.0 0.00 0.00 0.00 50 1029.5
20230131202005 24 185 2.0 8.0 0.00 0.00 0.00 51 1029.5
20230131201504 23 139 6.0 8.0 0.00 0.00 0.00 48 1029.5
20230131201003 24 248 2.0 7.0 0.00 0.00 0.00 50 1029.6
20230131200502 23 208 5.0 7.0 0.00 0.00 0.00 52 1029.6
20230131200001 23 292 3.0 6.0 0.00 0.00 0.00 51 1029.6
20230131195502 23 275 3.0 6.0 0.00 0.00 0.00 51 1029.6
20230131195001 23 307 3.0 7.0 0.00 0.00 0.00 52 1029.8
20230131194500 23 326 0.0 7.0 0.00 0.00 0.00 50 1029.9
20230131194227 23 181 2.0 7.0 0.00 0.00 0.00 52 1029.8
20230131194100 23 181 2.0 7.0 0.00 0.00 0.00 52 1029.8
20230131193454 22 160 1.0 7.0 0.00 0.00 0.00 53 1029.8
20230131192953 22 316 2.0 7.0 0.00 0.00 0.00 51 1029.8
20230131192725 22 168 3.0 7.0 0.00 0.00 0.00 53 1029.8
20230131192557 22 168 3.0 7.0 0.00 0.00 0.00 53 1029.8
20230131191952 22 260 2.0 5.0 0.00 0.00 0.00 54 1029.8
20230131191451 21 29 0.0 6.0 0.00 0.00 0.00 54 1029.9
20230131190944 21 149 1.0 6.0 0.00 0.00 0.00 54 1029.8
20230131190443 21 285 4.0 6.0 0.00 0.00 0.00 52 1029.9
20230131185942 21 268 2.0 6.0 0.00 0.00 0.00 53 1030.2
20230131185441 21 226 4.0 8.0 0.00 0.00 0.00 52 1030.2
20230131184941 20 330 5.0 8.0 0.00 0.00 0.00 53 1030.0
20230131184440 21 14 4.0 11.0 0.00 0.00 0.00 54 1029.9
20230131183939 21 302 3.0 11.0 0.00 0.00 0.00 52 1030.4
20230131183438 21 30 5.0 11.0 0.00 0.00 0.00 53 1030.2
20230131182938 20 45 2.0 9.0 0.00 0.00 0.00 54 1030.5
20230131182437 20 309 4.0 9.0 0.00 0.00 0.00 55 1030.7
20230131181936 20 343 4.0 9.0 0.00 0.00 0.00 55 1030.8
20230131181435 20 50 2.0 8.0 0.00 0.00 0.00 56 1030.9
20230131180934 20 21 5.0 7.0 0.00 0.00 0.00 57 1030.9
20230131180433 19 30 4.0 7.0 0.00 0.00 0.00 57 1031.1
20230131175932 19 262 3.0 7.0 0.00 0.00 0.00 56 1031.3
20230131175431 20 247 4.0 8.0 0.00 0.00 0.00 56 1031.3
20230131174931 20 300 1.0 8.0 0.00 0.00 0.00 55 1031.4
20230131174431 20 354 3.0 7.0 0.00 0.00 0.00 58 1031.5
20230131173930 20 223 0.0 7.0 0.00 0.00 0.00 56 1031.7
20230131173427 20 15 5.0 7.0 0.00 0.00 0.00 58 1032.0
20230131172926 19 334 3.0 7.0 0.00 0.00 0.00 58 1032.2
20230131172657 19 1 4.0 9.0 0.00 0.00 0.00 58 1032.2
20230131172529 19 1 4.0 9.0 0.00 0.00 0.00 58 1032.2
20230131171923 19 334 4.0 9.0 0.00 0.00 0.00 58 1032.4
20230131171653 19 322 6.0 9.0 0.00 0.00 0.00 59 1032.6
20230131171526 19 322 6.0 9.0 0.00 0.00 0.00 59 1032.6
20230131170920 19 313 4.0 8.0 0.00 0.00 0.00 58 1032.7
20230131170419 19 324 6.0 8.0 0.00 0.00 0.00 59 1032.7
20230131165919 19 282 1.0 8.0 0.00 0.00 0.00 60 1032.7
20230131165650 18 330 4.0 8.0 0.00 0.00 0.00 59 1032.6
20230131165523 18 330 4.0 8.0 0.00 0.00 0.00 59 1032.6
20230131165149 18 281 4.0 8.0 0.00 0.00 0.00 59 1032.7
20230131165022 18 281 4.0 8.0 0.00 0.00 0.00 59 1032.7
20230131164416 18 327 2.0 6.0 0.00 0.00 0.00 60 1032.8
20230131163915 17 302 2.0 6.0 0.00 0.00 0.00 60 1032.8
20230131163415 17 288 3.0 6.0 0.00 0.00 0.00 61 1032.7
20230131162912 17 271 3.0 6.0 0.00 0.00 0.00 60 1032.7
20230131162643 17 320 3.0 6.0 0.00 0.00 0.00 61 1032.8
20230131162515 17 320 3.0 6.0 0.00 0.00 0.00 61 1032.8
20230131161911 17 258 2.0 5.0 0.00 0.00 0.00 61 1032.8
20230131161410 16 2 3.0 5.0 0.00 0.00 0.00 60 1033.2
20230131160909 17 354 4.0 5.0 0.00 0.00 0.00 64 1033.2
20230131160417 16 18 2.0 5.0 0.00 0.00 0.00 61 1033.0
20230131160409 17 29 2.0 5.0 0.00 0.00 0.00 62 1033.1
20230131160013 16 18 2.0 5.0 0.00 0.00 0.00 61 1033.0
20230131155634 16 357 4.0 5.0 0.00 0.00 0.00 64 1033.0
20230131155507 16 357 4.0 5.0 0.00 0.00 0.00 64 1033.0
20230131155133 16 16 1.0 3.0 0.00 0.00 0.00 63 1033.2
20230131155007 16 16 1.0 3.0 0.00 0.00 0.00 63 1033.2
20230131154402 16 53 1.0 4.0 0.00 0.00 0.00 62 1033.1
20230131153901 16 60 2.0 4.0 0.00 0.00 0.00 60 1033.0
20230131153400 16 56 2.0 4.0 0.00 0.00 0.00 62 1033.1
20230131152859 16 43 2.0 3.0 0.00 0.00 0.00 64 1033.1
20230131152358 15 30 0.0 2.0 0.00 0.00 0.00 65 1033.3
20230131151857 15 47 0.0 3.0 0.00 0.00 0.00 68 1033.1
20230131151353 14 296 0.0 4.0 0.00 0.00 0.00 67 1033.2
20230131150851 14 46 0.0 4.0 0.00 0.00 0.00 68 1033.0
20230131150614 14 78 2.0 3.0 0.00 0.00 0.00 68 1033.2
20230131150448 14 78 2.0 3.0 0.00 0.00 0.00 68 1033.2
20230131145851 13 161 1.0 3.0 0.00 0.00 0.00 70 1033.2
20230131145842 13 142 1.0 3.0 0.00 0.00 0.00 69 1033.1
20230131145444 13 161 1.0 3.0 0.00 0.00 0.00 70 1033.2
20230131144839 12 192 0.0 0.0 0.00 0.00 0.00 71 1033.3
20230131144312 12 192 0.0 2.0 0.00 0.00 0.00 72 1033.3
20230131143811 12 192 0.0 2.0 0.00 0.00 0.00 72 1033.4
20230131143258 11 192 0.0 2.0 0.00 0.00 0.00 73 1033.4
20230131142757 11 67 1.0 2.0 0.00 0.00 0.00 75 1033.4
20230131142257 11 125 2.0 2.0 0.00 0.00 0.00 76 1033.3
20230131141752 10 49 1.0 2.0 0.00 0.00 0.00 77 1033.2
20230131141249 10 291 0.0 0.0 0.00 0.00 0.00 78 1033.3
20230131140746 9 291 0.0 0.0 0.00 0.00 0.00 78 1033.1
20230131140242 9 291 0.0 0.0 0.00 0.00 0.00 77 1033.0
20230131135715 9 291 0.0 0.0 0.00 0.00 0.00 77 1032.8
20230131135200 9 291 0.0 0.0 0.00 0.00 0.00 77 1033.1
20230131134657 9 291 0.0 0.0 0.00 0.00 0.00 77 1032.8
20230131134427 9 291 0.0 0.0 0.00 0.00 0.00 76 1032.7
20230131134301 9 291 0.0 0.0 0.00 0.00 0.00 76 1032.7
20230131133643 9 291 0.0 0.0 0.00 0.00 0.00 76 1032.8
20230131133404 9 291 0.0 0.0 0.00 0.00 0.00 76 1032.7
20230131133236 9 291 0.0 0.0 0.00 0.00 0.00 76 1032.7
20230131132623 9 291 0.0 0.0 0.00 0.00 0.00 76 1032.6
20230131132116 9 291 0.0 0.0 0.00 0.00 0.00 75 1032.7
20230131131616 9 291 0.0 0.0 0.00 0.00 0.00 75 1032.7
20230131131115 9 291 0.0 0.0 0.00 0.00 0.00 75 1032.7
20230131130842 10 291 0.0 0.0 0.00 0.00 0.00 74 1032.6
20230131130714 10 291 0.0 0.0 0.00 0.00 0.00 74 1032.6
20230131130109 9 291 0.0 0.0 0.00 0.00 0.00 74 1032.4
20230131125602 10 291 0.0 0.0 0.00 0.00 0.00 74 1032.2